[[{"header":{"parameterUnit":"m.s-1","parameterCategory":1,"la1":30.2991,"la2":30.254,"lo1":-89.0895,"lo2":-89.0444,"dy":0.0017,"dx":0.0017,"nx":28,"ny":28,"refTime":"2025-04-11T21:00:00:Z","depth":0,"parameterNumber":2,"parameterNumberName":"U-component_of_WINDS"},"data":[0,0,0,0,0,0,0,0,0,0,0,0,0,0,0,0,0,0,0,0,0,0,0,0,0,0,0,0,0,0,0,0,0,0,0,0,0,0,0,0,0,0,0,0,0,0,0,0,0,0,0,0,0,0,0,0,0,0,-1.1495,-1.1496,0,-1.1579,-1.158,-1.1581,-1.1531,-1.1529,-1.1526,-1.1524,-1.1612,-1.1617,-1.1621,0,0,0,0,0,0,0,0,0,0,0,0,0,-1.1291,-1.1295,-1.1495,-1.1496,-1.1497,-1.1579,-1.158,-1.1581,-1.1532,-1.1529,-1.1526,-1.1523,-1.1611,-1.1616,-1.1622,0,0,0,0,0,0,0,0,0,0,0,0,0,-1.1378,-1.1296,-1.1494,-1.1482,-1.1481,-1.1579,-1.158,-1.1582,-1.1532,-1.1529,-1.1525,-1.1522,-1.1609,-1.1616,-1.1623,-1.1738,0,0,-1.1644,-1.1647,0,0,0,0,0,0,0,0,-1.1373,-1.1386,-1.1483,-1.1483,-1.1483,-1.1541,-1.1541,-1.1634,-1.1533,-1.1513,-1.1524,-1.152,-1.1592,-1.16,-1.1624,-1.1742,-1.1746,-1.1644,-1.1649,-1.1652,-1.1654,0,0,0,0,0,0,0,-1.1367,-1.1382,-1.1528,-1.1484,-1.1484,-1.1472,-1.1481,-1.1558,-1.1572,-1.1514,-1.1511,-1.1522,-1.1591,-1.1617,-1.1625,-1.1747,-1.1644,-1.165,-1.1655,-1.1657,-1.1966,-1.1969,0,0,0,0,0,0,-1.1362,-1.1377,-1.1525,-1.1531,-1.1418,-1.1479,-1.1488,-1.1526,-1.1571,-1.1574,-1.1525,-1.1519,-1.1607,-1.1617,-1.1628,-1.1768,-1.1652,-1.1658,-1.1662,-1.1962,-1.1967,-1.1971,0,0,0,0,0,0,-1.1358,-1.1376,-1.1522,-1.1453,-1.1471,-1.1486,-1.1529,-1.1529,-1.1556,-1.1578,-1.1581,-1.1549,-1.1605,-1.1619,-1.1711,-1.177,-1.1661,-1.1667,-1.1957,-1.1963,-1.1969,-1.2047,0,0,0,0,0,0,-1.1352,-1.1374,-1.1418,-1.1454,-1.1475,-1.1604,-1.1533,-1.1534,-1.1567,-1.1561,-1.1602,-1.1605,-1.1603,-1.1701,-1.1718,-1.1778,-1.1673,-1.1952,-1.196,-1.1967,-1.2039,-1.2055,-1.2068,0,0,0,0,0,-1.1345,-1.1437,-1.1421,-1.1439,-1.1529,-1.1607,-1.1619,-1.1614,-1.1572,-1.1617,-1.1631,-1.1604,-1.176,-1.1711,-1.173,-1.1792,-1.1948,-1.1957,-1.1966,-1.2033,-1.2052,-1.2068,0,0,0,0,0,0,-1.1408,-1.1441,-1.1424,-1.153,-1.1566,-1.1598,-1.1654,-1.1634,-1.1683,-1.1675,-1.1667,-1.1677,-1.1774,-1.1792,-1.1736,-1.1907,-1.1848,-1.1861,-1.1892,-1.191,-1.1925,-1.1919,-1.1679,0,0,0,0,0,-1.1434,-1.1494,-1.152,-1.1611,-1.163,-1.1639,-1.1673,-1.1666,-1.1703,-1.1718,-1.1739,-1.1777,-1.1835,-1.1873,-1.1927,-1.204,-1.205,-1.2093,-1.2107,-1.2119,-1.2131,-1.2194,-1.2214,-1.2001,-1.2001,-1.2,0,0,-1.1489,-1.1515,-1.1553,-1.1624,-1.1651,-1.1714,-1.1652,-1.1721,-1.1768,-1.1729,-1.1818,-1.1835,-1.1876,-1.198,-1.2027,-1.1998,-1.2192,-1.2131,-1.214,-1.2146,-1.2206,-1.2226,-1.2244,-1.2007,-1.2006,-1.2005,0,0,-1.1622,-1.1646,-1.1726,-1.1754,-1.1795,-1.1801,-1.182,-1.1855,-1.1865,-1.1954,-1.1926,-1.1982,-1.2081,-1.2112,-1.2141,-1.2285,-1.2262,-1.2302,-1.2379,-1.2441,-1.2457,-1.2472,-1.2526,-1.2545,-1.2314,-1.2314,-1.2314,0,-1.1685,-1.1778,-1.1769,-1.1841,-1.1873,-1.1839,-1.1921,-1.1948,-1.2006,-1.203,-1.1996,-1.212,-1.2145,-1.2257,-1.2292,-1.2316,-1.2338,-1.2299,-1.2455,-1.247,-1.2484,-1.2535,-1.2555,-1.2319,-1.2318,-1.2318,-1.2317,0,-1.1855,-1.192,-1.1979,-1.2035,-1.2074,-1.215,-1.2153,-1.2194,-1.2183,-1.2192,-1.2284,-1.2313,-1.2373,-1.2398,-1.2388,-1.2509,-1.249,-1.2456,-1.2397,-1.251,-1.2557,-1.2577,-1.2326,-1.2324,-1.2323,-1.2321,0,0,-1.2032,-1.2081,-1.2104,-1.2129,-1.2172,-1.2222,-1.2296,-1.2355,-1.2391,-1.2431,-1.2494,-1.2578,-1.2548,-1.258,-1.2573,-1.2627,-1.2741,-1.2587,-1.2587,-1.2616,-1.2877,-1.2905,-1.2927,-1.2725,-1.2728,-1.2731,-1.2875,0,-1.2169,-1.2299,-1.2293,-1.2414,-1.2475,-1.2443,-1.2508,-1.2542,-1.2552,-1.2605,-1.2616,-1.2677,-1.2631,-1.2651,-1.2702,-1.2716,-1.2794,-1.2706,-1.2785,-1.2788,-1.2779,-1.2952,-1.298,-1.3115,-1.2893,-1.2896,-1.2898,0,-1.2347,-1.2393,-1.2521,-1.2556,-1.2581,-1.2639,-1.2693,-1.2743,-1.2781,-1.2785,-1.2821,-1.2805,-1.2881,-1.2818,-1.2924,-1.2864,-1.2895,-1.2907,-1.2912,-1.2922,-1.2852,-1.2968,-1.3157,-1.3178,-1.2927,-1.2925,-1.2923,0,-1.2466,-1.256,-1.2649,-1.2671,-1.2713,-1.2755,-1.2775,-1.2809,-1.2844,-1.2891,-1.2914,-1.2968,-1.2999,-1.3042,-1.3042,-1.2995,-1.3149,-1.3085,-1.3155,-1.3156,-1.3191,-1.319,-1.3391,-1.3208,-1.3207,-1.3207,-1.3207,0,-1.2621,-1.2701,-1.2703,-1.2758,-1.2847,-1.2839,-1.2928,-1.2943,-1.2973,-1.3031,-1.3006,-1.3061,-1.3056,-1.3112,-1.3112,-1.32,-1.3213,-1.3219,-1.3219,-1.3223,-1.3223,-1.3246,-1.3238,-1.3212,-1.3211,-1.321,-1.3209,0,-1.277,-1.2774,-1.287,-1.2901,-1.2911,-1.2976,-1.3003,-1.3056,-1.3063,-1.3137,-1.3153,-1.3166,-1.323,-1.3233,-1.3307,-1.3307,-1.3415,-1.3403,-1.3403,-1.3401,-1.3472,-1.3466,-1.3697,-1.3728,-1.3522,-1.3524,-1.3526,0,-1.287,-1.2931,-1.2969,-1.3006,-1.3028,-1.3088,-1.3124,-1.3118,-1.3157,-1.3204,-1.3252,-1.3313,-1.3363,-1.3467,-1.3483,-1.3539,-1.353,-1.3607,-1.3538,-1.3541,-1.3534,-1.3531,-1.3538,-1.3621,-1.3623,-1.3625,-1.3626,0,-1.3048,-1.3047,-1.31,-1.3155,-1.3198,-1.3241,-1.328,-1.3312,-1.331,-1.3355,-1.3421,-1.3459,-1.3534,-1.3596,-1.3651,-1.3672,-1.365,-1.3647,-1.3667,-1.3674,-1.3672,-1.3676,-1.3442,-1.3643,-1.3641,-1.364,-1.3639,-1.3638,-1.3178,-1.3231,-1.3266,-1.3327,-1.3355,-1.3393,-1.3444,-1.3458,-1.3512,-1.3573,-1.3565,-1.3639,-1.3675,-1.3746,-1.3771,-1.3828,-1.3802,-1.383,-1.3838,-1.3845,-1.3854,-1.366,-1.3838,-1.3837,-1.3837,-1.3837,-1.3836,0,-1.3357,-1.3378,-1.3433,-1.3489,-1.3536,-1.351,-1.3552,-1.3594,-1.3658,-1.3693,-1.3742,-1.3818,-1.3878,-1.3898,-1.3956,-1.3998,-1.399,-1.4014,-1.4012,-1.4018,-1.3873,-1.3851,-1.402,-1.402,-1.402,-1.402,-1.402,-1.402,-1.3455,-1.3545,-1.3548,-1.3651,-1.3671,-1.3743,-1.3769,-1.3804,-1.3832,-1.3918,-1.3968,-1.398,-1.4009,-1.407,-1.4124,-1.4128,-1.4152,-1.4181,-1.4181,-1.4046,-1.4028,-1.401,-1.399,-1.4185,-1.4186,-1.4322,-1.4323,-1.4324]},{"header":{"parameterUnit":"m.s-1","parameterCategory":1,"la1":30.2991,"la2":30.254,"lo1":-89.0895,"lo2":-89.0444,"dy":0.0017,"dx":0.0017,"nx":28,"ny":28,"refTime":"2025-04-11T21:00:00:Z","depth":0,"parameterNumber":3,"parameterNumberName":"V-component_of_WINDS"},"data":[0,0,0,0,0,0,0,0,0,0,0,0,0,0,0,0,0,0,0,0,0,0,0,0,0,0,0,0,0,0,0,0,0,0,0,0,0,0,0,0,0,0,0,0,0,0,0,0,0,0,0,0,0,0,0,0,0,0,-5.115,-5.1152,0,-5.1286,-5.1288,-5.1289,-5.122,-5.1216,-5.1212,-5.1209,-5.1348,-5.1354,-5.1361,0,0,0,0,0,0,0,0,0,0,0,0,0,-5.0829,-5.0835,-5.115,-5.1152,-5.1154,-5.1286,-5.1288,-5.129,-5.122,-5.1216,-5.1212,-5.1207,-5.1345,-5.1354,-5.1362,0,0,0,0,0,0,0,0,0,0,0,0,0,-5.0967,-5.0837,-5.115,-5.1135,-5.1135,-5.1286,-5.1288,-5.129,-5.1221,-5.1216,-5.121,-5.1205,-5.1342,-5.1353,-5.1363,-5.1536,0,0,-5.1395,-5.14,0,0,0,0,0,0,0,0,-5.0959,-5.0979,-5.1135,-5.1136,-5.1136,-5.123,-5.1225,-5.1373,-5.1223,-5.1188,-5.1209,-5.1203,-5.1313,-5.1325,-5.1363,-5.1543,-5.1549,-5.1396,-5.1403,-5.1407,-5.141,0,0,0,0,0,0,0,-5.095,-5.0972,-5.1204,-5.1138,-5.1138,-5.1121,-5.1134,-5.1253,-5.1279,-5.1191,-5.1186,-5.1203,-5.1312,-5.1353,-5.1366,-5.1551,-5.1396,-5.1405,-5.1412,-5.1416,-5.1878,-5.1883,0,0,0,0,0,0,-5.0941,-5.0965,-5.12,-5.1208,-5.1033,-5.1131,-5.1146,-5.1206,-5.1278,-5.1284,-5.1208,-5.12,-5.1337,-5.1353,-5.137,-5.1577,-5.1407,-5.1417,-5.1423,-5.1872,-5.1879,-5.1885,0,0,0,0,0,0,-5.0934,-5.0963,-5.1194,-5.1085,-5.1113,-5.1142,-5.121,-5.1211,-5.1252,-5.129,-5.1295,-5.1245,-5.1334,-5.1355,-5.1495,-5.1581,-5.1422,-5.1431,-5.1865,-5.1874,-5.1882,-5.1992,0,0,0,0,0,0,-5.0925,-5.0961,-5.1027,-5.1087,-5.1119,-5.1318,-5.1215,-5.1218,-5.127,-5.1261,-5.1326,-5.1332,-5.1331,-5.148,-5.1506,-5.1592,-5.144,-5.1857,-5.1869,-5.1879,-5.1981,-5.2004,-5.2023,0,0,0,0,0,-5.0914,-5.1053,-5.1031,-5.106,-5.1203,-5.1323,-5.1341,-5.1338,-5.1278,-5.1344,-5.1369,-5.133,-5.1567,-5.1495,-5.1523,-5.1615,-5.1852,-5.1865,-5.1878,-5.1972,-5.1999,-5.2023,0,0,0,0,0,0,-5.1002,-5.1061,-5.1037,-5.1199,-5.1257,-5.1311,-5.1395,-5.1368,-5.1443,-5.1431,-5.1424,-5.1439,-5.1584,-5.1613,-5.1531,-5.1785,-5.17,-5.172,-5.1761,-5.1788,-5.1808,-5.1799,-5.1448,0,0,0,0,0,-5.1041,-5.1133,-5.1179,-5.1318,-5.1348,-5.1367,-5.1419,-5.1411,-5.147,-5.1494,-5.1529,-5.1587,-5.1674,-5.1732,-5.1815,-5.1984,-5.1997,-5.2061,-5.2082,-5.2099,-5.2117,-5.2207,-5.2236,-5.1929,-5.1929,-5.1929,0,0,-5.1121,-5.1164,-5.1223,-5.1336,-5.138,-5.1476,-5.1388,-5.1493,-5.1563,-5.151,-5.1644,-5.1671,-5.1736,-5.1891,-5.1961,-5.192,-5.2204,-5.2116,-5.213,-5.2138,-5.2224,-5.2253,-5.2279,-5.1938,-5.1936,-5.1935,0,0,-5.1316,-5.1358,-5.1478,-5.1523,-5.159,-5.1602,-5.1631,-5.1689,-5.1705,-5.184,-5.1801,-5.1884,-5.2036,-5.2083,-5.2127,-5.2338,-5.2305,-5.2365,-5.2476,-5.2564,-5.2588,-5.261,-5.2685,-5.2712,-5.2382,-5.2383,-5.2383,0,-5.1407,-5.155,-5.1543,-5.1651,-5.1702,-5.1657,-5.1779,-5.1823,-5.1913,-5.1949,-5.1901,-5.2089,-5.2129,-5.2295,-5.2346,-5.2383,-5.2415,-5.2358,-5.2586,-5.2607,-5.2627,-5.2698,-5.2727,-5.2389,-5.2389,-5.2388,-5.2387,0,-5.1659,-5.1759,-5.1847,-5.1936,-5.1996,-5.211,-5.212,-5.2182,-5.2168,-5.2185,-5.2322,-5.2368,-5.2459,-5.2497,-5.2486,-5.2661,-5.2633,-5.2586,-5.25,-5.2663,-5.273,-5.2758,-5.2399,-5.2397,-5.2395,-5.2393,0,0,-5.1915,-5.1997,-5.203,-5.2069,-5.2139,-5.2216,-5.2327,-5.2416,-5.2469,-5.2532,-5.2625,-5.2753,-5.2709,-5.2759,-5.2752,-5.283,-5.2993,-5.2772,-5.2774,-5.2812,-5.3189,-5.3225,-5.3257,-5.2971,-5.2976,-5.2981,-5.3183,0,-5.2115,-5.2311,-5.2307,-5.2488,-5.2579,-5.2537,-5.2634,-5.2687,-5.2705,-5.2784,-5.2803,-5.2894,-5.283,-5.2859,-5.2934,-5.2958,-5.3069,-5.2943,-5.3057,-5.3061,-5.3043,-5.3292,-5.333,-5.3519,-5.321,-5.3214,-5.3217,0,-5.2375,-5.2447,-5.2637,-5.2692,-5.2731,-5.2818,-5.2898,-5.2975,-5.3034,-5.3041,-5.3096,-5.3076,-5.3188,-5.3099,-5.3253,-5.3167,-5.3213,-5.3231,-5.3239,-5.325,-5.315,-5.331,-5.358,-5.3608,-5.3259,-5.3255,-5.3252,0,-5.2543,-5.2687,-5.2819,-5.2854,-5.2922,-5.2984,-5.3015,-5.3068,-5.3122,-5.3192,-5.3226,-5.3308,-5.3353,-5.3417,-5.3419,-5.3354,-5.3575,-5.3486,-5.3584,-5.3584,-5.3633,-5.363,-5.3915,-5.3662,-5.3661,-5.3661,-5.366,0,-5.2767,-5.2885,-5.2895,-5.2977,-5.3108,-5.3101,-5.3231,-5.3256,-5.3303,-5.3388,-5.3356,-5.3437,-5.3435,-5.3516,-5.3518,-5.3645,-5.3666,-5.3674,-5.3674,-5.3678,-5.3677,-5.3708,-5.3696,-5.3668,-5.3667,-5.3665,-5.3664,0,-5.2977,-5.2989,-5.313,-5.3182,-5.3198,-5.3292,-5.3336,-5.3413,-5.3427,-5.3535,-5.356,-5.3582,-5.3676,-5.3685,-5.3794,-5.3795,-5.3949,-5.3934,-5.3929,-5.3927,-5.4024,-5.4015,-5.434,-5.4382,-5.4102,-5.4104,-5.4107,0,-5.312,-5.321,-5.3271,-5.3326,-5.336,-5.3449,-5.3503,-5.35,-5.3557,-5.363,-5.3698,-5.3789,-5.3861,-5.4013,-5.4039,-5.4122,-5.4108,-5.4216,-5.4121,-5.4122,-5.411,-5.4105,-5.4114,-5.4235,-5.4238,-5.4241,-5.4243,0,-5.3372,-5.3373,-5.3452,-5.3534,-5.3599,-5.3663,-5.3723,-5.3769,-5.3773,-5.3839,-5.3935,-5.3991,-5.4102,-5.4192,-5.4273,-5.4304,-5.4275,-5.4273,-5.43,-5.4305,-5.4299,-5.4304,-5.3981,-5.4266,-5.4263,-5.4262,-5.426,-5.4259,-5.3553,-5.363,-5.3686,-5.3775,-5.3819,-5.3875,-5.395,-5.3973,-5.4053,-5.4143,-5.4136,-5.4242,-5.4296,-5.4402,-5.4439,-5.4521,-5.4485,-5.4524,-5.4534,-5.4544,-5.4554,-5.4285,-5.4536,-5.4535,-5.4534,-5.4534,-5.4533,0,-5.3803,-5.3836,-5.3918,-5.4003,-5.4073,-5.4038,-5.4102,-5.4162,-5.4256,-5.431,-5.4381,-5.4491,-5.4578,-5.461,-5.4694,-5.4754,-5.4742,-5.4776,-5.4772,-5.478,-5.4582,-5.455,-5.4784,-5.4784,-5.4784,-5.4784,-5.4784,-5.4784,-5.3942,-5.4071,-5.4078,-5.4229,-5.4261,-5.4364,-5.4404,-5.4455,-5.4497,-5.4621,-5.4693,-5.4713,-5.4758,-5.4845,-5.4923,-5.493,-5.4963,-5.5003,-5.5004,-5.4819,-5.4794,-5.477,-5.474,-5.501,-5.501,-5.5195,-5.5197,-5.5198]}]]